Tracking 26940 objects as of 28-Jan-2023
HD Live streaming from Space Station
objects crossing your sky now

ANAND

Track ANAND now!
10-day predictions


NORAD ID: 54366
Int'l Code: 2022-158F
Perigee: 501.3 km
Apogee: 517.2 km
Inclination: 97.4 °
Period: 94.7 minutes
Semi major axis: 6880 km
RCS: Unknown
Launch date: November 26, 2022
Source: India (IND)
Launch site: SRIHARIKOTA (SRI)
Your satellite tracking list
Your tracking list is empty




NASA's NSSDC Master Catalog

Two Line Element Set (TLE):
1 54366U 22158F   23028.37857584  .00017981  00000-0  80588-3 0  9992
2 54366  97.4390 127.7445 0011590  56.1877  10.1837 15.21228782  9577
Source of the keplerian elements: AFSPC